Погода Удское

Погода Удское : погода сейчас, прогноз погоды и архив. Всё, что Вы хотите узнать о погоде Удское!

Поиск расширенной информации на нашем сайте:

Другие новости

Новости СМИ2

Главная страница сайта

Новости сайта

02.10.2013

Напоминаем, что на нашем новом сайте вы можете получить высокодетализированные прогнозы погоды по пунктам России, СНГ и мира (включающие важные для авиации метеовеличины, такие как направление и скорость ветра, видимость, явления погоды, количество и форма облачности, нижняя и верхняя граница облачности), а также ознакомиться с разнообразными материалами по авиационной метеорологии и подборкой полезных ссылок на эту тему.

Сайт Метеоцентр.Азия посвящён разработке технологий оптимизации авиаметеорологического обслуживания, включая проектирование и перспективное создание нескольких автоматизированных авиаметеорологических систем:
- система выпуска высокодетальных прогностических карт явлений погоды для нижнего воздушного пространства по России и ближнему зарубежью;
- система верификации прогнозов TAF (выпускаемых синоптиками официальных АМСГ РФ и ближнего зарубежья) и AUTOTAF (выпускаемых сайтом Метеоцентр.Азия) - выявление ошибок, онлайн-сопоставление с фактической погодой METAR, автоматическое внесение коррективов в прогнозы при резком отклонении фактической погоды от прогноза, подсчёт оправдываемости прогнозов по элементам и в целом;
- система обработки, анализа и отображения авиаметеорологической информации для применения провайдерами метеорологической информации.

Рекомендуем: Стоимость источника бесперебойного питания цена на ups источники бесперебойного питания.

Погода Удское - сегодня

Время (UTC), дата Ветер
(°,м/с) 
Видим.   Явления Облачность Т
(°С)
Тd
(°С)
f(%) Тe
(°С)
Pmin
(гПа)
dP
(гПа)
Po
(мм)
O2
(г/м3)
Тmin Tmax R s Состояние
почвы
15 19.06.17 050 (СВ) 20000 м    8/8 300 м 
[St]
+5 +4.5 97 +5  1013.8  0.9  755  298           
18 19.06.17 070 (В) 20000 м    10/10 300 м 
[St]
+4.6 +4.1 97 +5  1013.5  -0.3  754  298           
21 19.06.17 070 (В) 0200 м  туман  ?/?  
+6.6 +4.6 87 +8  1014.4  0.9  755  296    +4.5      влажная 
00 20.06.17 070 (В) 20000 м    ясно 
+11.1 +6.7 74 +12  1014.7  -0.4  755  291           
03 20.06.17 050 (СВ) 20000 м    1/1 1000 м 
[Cu hum]
+20.8 +8.2 44 +21  1012.5  -1.9  754  281           
06 20.06.17 070 (В) 20000 м    1/1 1000 м 
[Cu med, cong]
+25.2 +4.2 26 +25  1009.5  -2.8  752  277           
09 20.06.17 тихо ()   20000 м    1/1 1000 м 
[Cu hum]
+26.6 +6.1 27 +27  1007.9  -1.5  751  275    +27.5       
12 20.06.17 010 (С) 16  <0100 м    1/0 <0100 м верхняя 
[Ci fib]
+7.9   1009  0.7  751             
15 20.06.17 тихо ()   20000 м    3/0 верхняя 
[Ci fib]
+4.4 +3.4 93 +4  1009.5  0.3  751  297           
21 20.06.17 070 (В) 20000 м    1/0 верхняя 
[Ci fib]
+12.9 +6.4 65 +14  1008.1  -0.9  751  288  +4        влажная 
00 21.06.17 200 (Ю) 20000 м    1/0 верхняя 
[Ci fib]
+20.7 +8.1 44 +21  1007.9  -0.4  750  280           
03 21.06.17 200 (Ю) 20000 м    3/1 600 м кучево-дожд., верхняя 
[Cb cap|Ci fib]
+27.7 +8 29 +28  1003.7  -3.6  748  272           
06 21.06.17 250 (З) 20000 м    6/4 600 м кучево-дожд., верхняя 
[Cb cap|Cc]
+31.1 +7.9 24 +31  999.7  -3.9  745  268           
09 21.06.17 270 (З) 20000 м    10/9 600 м кучево-дожд., средняя 
[Cb cap|Ac As]
+27.2 +14.2 45 +35  999.1  -0.6  744  270    +32       
12 21.06.17 тихо ()   20000 м    6/3 600 м кучево-дожд., средняя, верхняя 
[Cb cap|Ac trans|Ci fib]
+19.6 +16.3 81 +31  1000.3  0.9  745  276           
15 21.06.17 тихо ()   20000 м    3/3 600 м кучево-дожд., средняя 
[Cb cap|Ac trans]
+12.4 +11.3 93 +15  1002.1  1.7  746  285           
18 21.06.17 тихо ()   20000 м    3/3 600 м кучево-дожд., средняя 
[Cb cap|Ac trans]
+10.5 +9.7 95 +11  1004.6  2.3  748  288           
21 21.06.17 270 (З) 20000 м    9/4 1000 м средняя, верхняя 
[Sc|Ac trans|Ci fib]
+14.5 +13.4 93 +22  1006  1.5  749  284  +10.5        влажная 
00 22.06.17 270 (З) 20000 м    8/0 верхняя 
[Cc]
+23.1 +12.2 50 +27  1006.1  0.4  749  276           
03 22.06.17 180 (Ю) 20000 м    8/1 1000 м верхняя 
[Cu hum|Cs]
+27.5 +9 31 +28  1004.9  -1.1  748  272           
06 22.06.17 180 (Ю) 20000 м    8/1 1000 м средняя, верхняя 
[Cu hum|Ac cast|Cs]
+28.2 +13.4 40 +34  1002.5  -2.4  747  270           
09 22.06.17 180 (Ю) 20000 м    8/0 средняя, верхняя 
[Ac lent|Cc]
+27.8 +9.5 32 +28  1001.1  -1.3  746  271    +29       
12 22.06.17 тихо ()   20000 м    8/3 1000 м средняя, верхняя 
[Cu med, cong|Ac lent|Cc]
+14.2 +11.8 85 +18  1001.4  -0.1  746  283           
15 22.06.17 180 (Ю) 20000 м    9/0 средняя 
[Ac trans]
+10.7 +9.3 91 +12  1002.5  0.9  746  288           
18 22.06.17 050 (СВ) 20000 м    9/3 1000 м средняя, верхняя 
[Sc|As op|Cs]
+9.9 +6.7 80 +10  1006.6  4.1  749  290           
Время (UTC), дата Ветер
(°,м/с) 
Видим.   Явления Облачность Т
(°С)
Тd
(°С)
f(%) Тe
(°С)
Pmin
(гПа)
dP
(гПа)
Po
(мм)
O2
(г/м3)
Тmin Tmax R s Состояние
почвы

Для получения пояснительной информации подведите курсор к названию столбца.

ПОГОДА Удское - архив

Всё, что Вы хотите узнать о погоде Удское - удобно и подробно!

Выберите нужную дату (начиная с 1 января 2015* года) и нажмите кнопку "Найти".
Будут отображены архивные сводки погоды по пункту Удское, начиная с указанной даты.


Отображать данные в формате CSV (для использования в таблицах Excel)


Внимание! Наш архив погоды предназначен исключительно для личного некоммерческого использования в познавательных целях. Если Вам необходимы официальные справки о состоянии погоды (для производственных, юридических, коммерческих и т.п. целей), обращайтесь в органы Росгидромета.

*Примечание: данная дата относится к архиву по метеостанциям СССР (Россия, СНГ, Балтия).
Архив по метеостанциям Зарубежной Европы и Азии (кроме Китая) хранится 10 дней, по другим регионам земного шара (Китай, Африка, Америка, Австралия, Океания) - 1 день.

Удское - район местоположения метеостанции


Название, широта, долгота, высота метеостанции:
Удское 54.53°ш. 134.42°д. 57 м над ур. моря [Российская Федерация]

Дополнительная информация

В oтличие oт бoльшинства пoгoдных сайтoв мы публикуем пoдрoбную метеoинфoрмацию в детальнoм прoфессиoнальнoм фoрмате.

Характеристики температуры и влажнoсти вoздуха измеряются на высoте 2 м в тени вдали oт зданий и деревьев.
Скoрoсть ветра измеряется на высoте 10 м (на урoвне рoста челoвека скoрoсть ветра ниже в 1.5-2 раза). Если метеoстанция нахoдится в гoрoде или в лесу, тo скoрoсть ветра занижена на 2-4 м/с пo сравнению с oткрытым местoм. Скoрoсть ветра над акватoриями крупных рек и oзёр, а также на вершинах хoлмoв на 2-5 м/с выше, чем в oбычных услoвиях.
Атмoсфернoе давление в разных тoчках местнoсти мoжет значительнo oтличаться oт давления на метеoстанции, в зависимoсти oт услoвий рельефа (при пoдъёме на 10 м давление пoнижается примернo на 1 мм рт.ст.).